EW4411 Weather Reports


time (UTC)temp
C
wind
direction
speed
KPH
gust
KPH
rain 1hr
cm
rain 24hr
cm
rain mn
cm
humidity
%
barometer
mb
20260507195656 33 267 6.4 19.3 0.00 0.00 0.00 42 1012.7
20260507195148 33 282 6.4 19.3 0.00 0.00 0.00 41 1012.8
20260507194643 33 279 8.0 20.9 0.00 0.00 0.00 42 1012.8
20260507194136 33 221 8.0 20.9 0.00 0.00 0.00 41 1012.9
20260507193632 33 278 6.4 14.5 0.00 0.00 0.00 42 1013.0
20260507193126 33 211 6.4 14.5 0.00 0.00 0.00 41 1013.1
20260507192620 33 291 6.4 17.7 0.00 0.00 0.00 40 1013.2
20260507192114 33 240 4.8 17.7 0.00 0.00 0.00 39 1013.3
20260507191608 33 273 8.0 19.3 0.00 0.00 0.00 43 1013.3
20260507190554 33 304 8.0 25.7 0.00 0.00 0.00 42 1013.2
20260507190049 33 214 8.0 25.7 0.00 0.00 0.00 40 1013.4
20260507184532 33 266 6.4 20.9 0.00 0.00 0.00 42 1013.8
20260507183519 33 289 8.0 20.9 0.00 0.00 0.00 42 1014.0
20260507183012 33 311 9.7 20.9 0.00 0.00 0.00 44 1014.1
20260507182507 32 289 9.7 20.9 0.00 0.00 0.00 44 1014.3
20260507182001 32 249 8.0 22.5 0.00 0.00 0.00 46 1014.3
20260507181456 32 270 8.0 22.5 0.00 0.00 0.00 46 1014.4
20260507180950 32 264 8.0 17.7 0.00 0.00 0.00 47 1014.5
20260507175938 32 238 4.8 17.7 0.00 0.00 0.00 48 1014.7
20260507175432 32 263 6.4 19.3 0.00 0.00 0.00 49 1014.8
20260507174925 32 270 6.4 19.3 0.00 0.00 0.00 47 1014.7
20260507174418 32 246 8.0 25.7 0.00 0.00 0.00 50 1014.8
20260507173914 32 262 8.0 25.7 0.00 0.00 0.00 51 1014.8
20260507173407 32 270 9.7 22.5 0.00 0.00 0.00 51 1014.9
20260507172902 32 259 11.3 22.5 0.00 0.00 0.00 52 1014.9
20260507172354 32 236 9.7 24.1 0.00 0.00 0.00 52 1014.8
20260507171848 31 243 9.7 27.4 0.00 0.00 0.00 54 1014.9
20260507171344 31 266 8.0 27.4 0.00 0.00 0.00 54 1014.9
20260507170332 31 248 9.7 24.1 0.00 0.00 0.00 54 1015.0
20260507165826 31 298 8.0 24.1 0.00 0.00 0.00 54 1014.9
20260507165320 31 275 6.4 19.3 0.00 0.00 0.00 55 1014.9
20260507164306 31 266 11.3 24.1 0.00 0.00 0.00 59 1015.1
20260507163801 31 242 9.7 22.5 0.00 0.00 0.00 59 1015.1
20260507163254 31 275 6.4 19.3 0.00 0.00 0.00 59 1015.2
20260507162749 31 270 6.4 19.3 0.00 0.00 0.00 60 1015.2
20260507162243 31 283 6.4 17.7 0.00 0.00 0.00 60 1015.2
20260507161737 30 254 6.4 19.3 0.00 0.00 0.00 59 1015.3
20260507161232 30 239 6.4 19.3 0.00 0.00 0.00 60 1015.3
20260507160726 30 262 4.8 14.5 0.00 0.00 0.00 60 1015.4
20260507155712 30 225 8.0 25.7 0.00 0.00 0.00 60 1015.6
20260507155208 30 246 6.4 24.1 0.00 0.00 0.00 61 1015.6
20260507154702 30 255 8.0 24.1 0.00 0.00 0.00 62 1015.7
20260507153648 30 289 8.0 20.9 0.00 0.00 0.00 62 1015.9
20260507153144 29 237 6.4 20.9 0.00 0.00 0.00 63 1015.9
20260507152644 29 236 8.0 20.9 0.00 0.00 0.00 63 1016.0
20260507152145 29 271 8.0 14.5 0.00 0.00 0.00 63 1016.1
20260507151646 29 244 6.4 19.3 0.00 0.00 0.00 63 1016.1
20260507151145 29 249 6.4 19.3 0.00 0.00 0.00 63 1016.1
20260507150646 28 264 6.4 19.3 0.00 0.00 0.00 63 1016.1
20260507150145 28 271 8.0 19.3 0.00 0.00 0.00 64 1016.0
20260507145145 28 251 6.4 19.3 0.00 0.00 0.00 66 1016.2
20260507144643 28 247 8.0 20.9 0.00 0.00 0.00 66 1016.2
20260507143641 27 261 6.4 17.7 0.00 0.00 0.00 70 1016.2
20260507143141 27 221 6.4 14.5 0.00 0.00 0.00 70 1016.2
20260507142641 27 208 8.0 19.3 0.00 0.00 0.00 71 1016.2
20260507141643 27 237 8.0 19.3 0.00 0.00 0.00 72 1016.1
20260507141143 27 224 8.0 19.3 0.00 0.00 0.00 72 1016.2
20260507140139 27 261 8.0 19.3 0.00 0.00 0.00 73 1016.2
20260507135636 26 252 9.7 20.9 0.00 0.00 0.00 73 1016.3
20260507135137 26 237 8.0 20.9 0.00 0.00 0.00 73 1016.3
20260507134637 26 264 6.4 14.5 0.00 0.00 0.00 72 1016.2
20260507134136 26 223 6.4 12.9 0.00 0.00 0.00 72 1016.3
20260507133637 26 246 6.4 17.7 0.00 0.00 0.00 72 1016.2
20260507133137 26 219 6.4 19.3 0.00 0.00 0.00 72 1016.4
20260507132636 26 211 6.4 19.3 0.00 0.00 0.00 73 1016.3
20260507132136 26 235 6.4 17.7 0.00 0.00 0.00 73 1016.3
20260507131138 25 220 4.8 17.7 0.00 0.00 0.00 76 1016.3
20260507130132 25 209 4.8 14.5 0.00 0.00 0.00 78 1016.3
20260507125632 25 208 4.8 11.3 0.00 0.00 0.00 79 1016.2
20260507125132 25 260 3.2 9.7 0.00 0.00 0.00 80 1016.3
20260507124632 24 202 3.2 9.7 0.00 0.00 0.00 80 1016.3
20260507124132 24 240 3.2 8.0 0.00 0.00 0.00 81 1016.3
20260507123134 23 242 1.6 6.4 0.00 0.00 0.00 82 1016.4
20260507122634 23 236 1.6 8.0 0.00 0.00 0.00 82 1016.4
20260507122129 23 234 3.2 8.0 0.00 0.00 0.00 82 1016.5
20260507121129 23 212 3.2 8.0 0.00 0.00 0.00 82 1016.5
20260507120629 22 244 3.2 8.0 0.00 0.00 0.00 82 1016.5
20260507120128 22 211 1.6 6.4 0.00 0.00 0.00 83 1016.4
20260507115628 22 237 1.6 8.0 0.00 0.00 0.00 84 1016.4
20260507114130 21 251 3.2 9.7 0.00 0.00 0.00 85 1016.2
20260507113622 21 231 3.2 9.7 0.00 0.00 0.00 85 1016.2
20260507113117 21 250 1.6 6.4 0.00 0.00 0.00 86 1016.1
20260507112611 21 211 1.6 6.4 0.00 0.00 0.00 86 1016.1
20260507112105 21 249 3.2 6.4 0.00 0.00 0.00 86 1016.0
20260507111558 21 246 3.2 6.4 0.00 0.00 0.00 86 1015.9
20260507111053 21 252 1.6 6.4 0.00 0.00 0.00 86 1016.0
20260507110547 21 256 1.6 8.0 0.00 0.00 0.00 87 1016.0
20260507105534 20 256 0.0 4.8 0.00 0.00 0.00 87 1016.0
20260507104521 20 253 1.6 4.8 0.00 0.00 0.00 87 1015.8
20260507104015 20 258 0.0 4.8 0.00 0.00 0.00 87 1015.7
20260507103509 20 256 0.0 4.8 0.00 0.00 0.00 87 1015.7
20260507102456 20 263 1.6 4.8 0.00 0.00 0.00 86 1015.6
20260507101951 20 256 1.6 6.4 0.00 0.00 0.00 86 1015.6
20260507101443 20 268 1.6 6.4 0.00 0.00 0.00 86 1015.6
20260507100939 20 255 1.6 6.4 0.00 0.00 0.00 87 1015.5
20260507100433 20 249 1.6 6.4 0.00 0.00 0.00 87 1015.4
20260507095927 20 254 1.6 4.8 0.00 0.00 0.00 87 1015.3
20260507095420 20 263 1.6 4.8 0.00 0.00 0.00 87 1015.3
20260507094913 20 278 0.0 4.8 0.00 0.00 0.00 87 1015.3
20260507094409 20 266 0.0 4.8 0.00 0.00 0.00 87 1015.1
20260507093357 20 263 0.0 3.2 0.00 0.00 0.00 87 1014.8
20260507092851 20 265 0.0 3.2 0.00 0.00 0.00 87 1014.8
20260507092345 20 264 0.0 3.2 0.00 0.00 0.00 87 1014.8
20260507091838 20 263 0.0 3.2 0.00 0.00 0.00 87 1014.7
20260507091333 20 260 0.0 3.2 0.00 0.00 0.00 87 1014.8
20260507090321 20 268 0.0 3.2 0.00 0.00 0.00 87 1014.8
20260507085815 20 270 0.0 1.6 0.00 0.00 0.00 87 1014.8
20260507084802 20 272 0.0 0.0 0.00 0.00 0.00 87 1014.7
20260507084256 20 283 0.0 0.0 0.00 0.00 0.00 88 1014.8
20260507083749 20 286 0.0 0.0 0.00 0.00 0.00 88 1014.8
20260507082738 20 289 0.0 0.0 0.00 0.00 0.00 88 1014.7
20260507082231 20 289 0.0 0.0 0.00 0.00 0.00 88 1014.8
20260507081727 20 294 0.0 0.0 0.00 0.00 0.00 88 1014.7
20260507081221 20 292 0.0 0.0 0.00 0.00 0.00 87 1014.7
20260507080715 20 293 0.0 0.0 0.00 0.00 0.00 87 1014.7
20260507080208 20 294 0.0 0.0 0.00 0.00 0.00 88 1014.8
20260507075703 20 292 0.0 0.0 0.00 0.00 0.00 87 1014.8
20260507075158 20 293 0.0 0.0 0.00 0.00 0.00 87 1014.8
20260507074651 20 294 0.0 0.0 0.00 0.00 0.00 87 1014.8
20260507074143 20 293 0.0 0.0 0.00 0.00 0.00 87 1014.9
20260507073638 20 290 0.0 0.0 0.00 0.00 0.00 86 1015.0
20260507073138 20 292 0.0 0.0 0.00 0.00 0.00 87 1014.9
20260507072626 20 292 0.0 0.0 0.00 0.00 0.00 86 1014.9
20260507072121 20 294 0.0 0.0 0.00 0.00 0.00 86 1015.0
20260507071614 20 293 0.0 0.0 0.00 0.00 0.00 86 1015.1
20260507071108 20 293 0.0 0.0 0.00 0.00 0.00 85 1015.2
20260507070603 20 293 0.0 0.0 0.00 0.00 0.00 85 1015.2
20260507065045 21 294 0.0 0.0 0.00 0.00 0.00 85 1015.4
20260507064539 21 293 0.0 0.0 0.00 0.00 0.00 85 1015.3
20260507063527 21 292 0.0 0.0 0.00 0.00 0.00 85 1015.4
20260507063019 21 294 0.0 0.0 0.00 0.00 0.00 84 1015.6
20260507062515 21 290 0.0 3.2 0.00 0.00 0.00 84 1015.7
20260507061503 21 293 0.0 3.2 0.00 0.00 0.00 84 1015.8
20260507060956 21 297 1.6 3.2 0.00 0.00 0.00 84 1015.9
20260507060451 21 296 0.0 3.2 0.00 0.00 0.00 84 1015.9
20260507055943 21 296 0.0 1.6 0.00 0.00 0.00 83 1015.9
20260507054933 21 297 1.6 4.8 0.00 0.00 0.00 83 1016.0
20260507054426 21 295 1.6 4.8 0.00 0.00 0.00 82 1016.0
20260507053920 22 275 0.0 1.6 0.00 0.00 0.00 82 1016.0
20260507053414 22 273 0.0 0.0 0.00 0.00 0.00 82 1016.0
20260507052907 22 272 0.0 1.6 0.00 0.00 0.00 82 1016.1
20260507052403 22 273 0.0 3.2 0.00 0.00 0.00 82 1016.1
20260507051857 22 273 1.6 6.4 0.00 0.00 0.00 82 1016.1
20260507050844 22 272 1.6 6.4 0.00 0.00 0.00 81 1016.4
20260507045831 22 269 3.2 11.3 0.00 0.00 0.00 81 1016.3
20260507045327 22 262 6.4 14.5 0.00 0.00 0.00 81 1016.3
20260507044821 23 285 4.8 14.5 0.00 0.00 0.00 80 1016.5
20260507044315 23 293 1.6 14.5 0.00 0.00 0.00 79 1016.6
20260507043807 23 244 4.8 20.9 0.00 0.00 0.00 78 1016.0
20260507042251 25 153 4.8 14.5 0.00 0.00 0.00 77 1015.9
20260507041744 25 259 6.4 14.5 0.00 0.00 0.00 77 1015.8
20260507041238 25 131 8.0 14.5 0.00 0.00 0.00 77 1015.8
20260507040733 25 136 8.0 14.5 0.00 0.00 0.00 77 1015.7
20260507040226 25 156 6.4 14.5 0.00 0.00 0.00 77 1015.7
20260507035721 25 145 4.8 11.3 0.00 0.00 0.00 77 1015.8
20260507035214 25 17 4.8 12.9 0.00 0.00 0.00 77 1015.8
20260507034708 25 152 6.4 12.9 0.00 0.00 0.00 76 1015.8
20260507034202 25 247 4.8 12.9 0.00 0.00 0.00 76 1015.8
20260507033656 25 212 4.8 11.3 0.00 0.00 0.00 76 1015.9
20260507033151 25 140 4.8 11.3 0.00 0.00 0.00 76 1016.0
20260507032645 25 248 6.4 11.3 0.00 0.00 0.00 75 1016.0
20260507032137 25 247 6.4 11.3 0.00 0.00 0.00 75 1016.2
20260507031633 25 105 6.4 12.9 0.00 0.00 0.00 75 1016.1
20260507031132 25 193 4.8 12.9 0.00 0.00 0.00 75 1016.0
20260507030631 25 237 4.8 12.9 0.00 0.00 0.00 75 1016.0
20260507030128 25 172 4.8 12.9 0.00 0.00 0.00 75 1015.9
20260507025629 25 152 4.8 12.9 0.00 0.00 0.00 74 1015.9
20260507025128 25 220 6.4 12.9 0.00 0.00 0.00 74 1016.0
20260507024128 25 145 6.4 14.5 0.00 0.00 0.00 73 1015.9
20260507023628 25 127 6.4 19.3 0.00 0.00 0.00 73 1015.9
20260507023129 25 143 6.4 19.3 0.00 0.00 0.00 73 1015.9
20260507022628 25 209 6.4 14.5 0.00 0.00 0.00 73 1015.9
20260507022129 25 256 6.4 14.5 0.00 0.00 0.00 73 1015.9
20260507021129 25 85 6.4 14.5 0.00 0.00 0.00 73 1015.9
20260507020626 25 150 8.0 14.5 0.00 0.00 0.00 72 1016.0
20260507020124 25 239 8.0 17.7 0.00 0.00 0.00 72 1016.0
20260507015625 25 138 6.4 17.7 0.00 0.00 0.00 72 1015.9
20260507015125 25 143 4.8 12.9 0.00 0.00 0.00 72 1015.8
20260507014619 25 247 6.4 12.9 0.00 0.00 0.00 71 1015.8
20260507014118 25 237 6.4 12.9 0.00 0.00 0.00 71 1015.9
20260507013118 25 114 4.8 14.5 0.00 0.00 0.00 70 1016.0
20260507012615 25 240 4.8 12.9 0.00 0.00 0.00 70 1016.0
20260507012117 25 252 4.8 12.9 0.00 0.00 0.00 69 1016.1
20260507011617 25 195 6.4 12.9 0.00 0.00 0.00 68 1016.1
20260507011116 26 160 6.4 14.5 0.00 0.00 0.00 67 1015.9
20260507010616 26 147 4.8 14.5 0.00 0.00 0.00 66 1015.9
20260507010116 26 145 4.8 11.3 0.00 0.00 0.00 65 1015.8
20260507005615 26 252 4.8 11.3 0.00 0.00 0.00 64 1015.8
20260507005115 26 134 6.4 12.9 0.00 0.00 0.00 63 1015.8
20260507004114 26 240 4.8 9.7 0.00 0.00 0.00 61 1015.6
20260507003615 26 249 6.4 12.9 0.00 0.00 0.00 61 1015.6
20260507003115 26 119 4.8 14.5 0.00 0.00 0.00 60 1015.6
20260507002612 26 229 6.4 17.7 0.00 0.00 0.00 59 1015.6
20260507002112 26 135 6.4 17.7 0.00 0.00 0.00 59 1015.6
20260507001112 26 261 8.0 17.7 0.00 0.00 0.00 57 1015.4
20260507000612 26 121 8.0 20.9 0.00 0.00 0.00 57 1015.4
20260507000113 27 138 6.4 20.9 0.00 0.00 0.00 56 1015.5
20260506235613 27 152 8.0 17.7 0.00 0.00 0.00 56 1015.5
20260506235115 27 295 8.0 17.7 0.00 0.00 0.00 56 1015.5
20260506234614 27 173 8.0 17.7 0.00 0.00 0.00 56 1015.5
20260506234114 27 150 6.4 14.5 0.00 0.00 0.00 56 1015.5
20260506233614 27 268 6.4 17.7 0.00 0.00 0.00 56 1015.5
20260506233112 27 118 8.0 20.9 0.00 0.00 0.00 56 1015.5
20260506232613 27 146 8.0 20.9 0.00 0.00 0.00 55 1015.4
20260506232113 28 118 9.7 19.3 0.00 0.00 0.00 56 1015.5
20260506231613 28 114 9.7 19.3 0.00 0.00 0.00 56 1015.5
20260506231111 28 105 8.0 19.3 0.00 0.00 0.00 56 1015.5
20260506230612 28 100 9.7 24.1 0.00 0.00 0.00 55 1015.5
20260506230113 28 286 9.7 24.1 0.00 0.00 0.00 55 1015.5
20260506224607 28 98 11.3 22.5 0.00 0.00 0.00 55 1015.5
20260506224107 28 103 11.3 22.5 0.00 0.00 0.00 55 1015.4
20260506223608 28 190 9.7 22.5 0.00 0.00 0.00 55 1015.4
20260506222608 28 280 11.3 27.4 0.00 0.00 0.00 54 1015.6
20260506222108 28 136 11.3 24.1 0.00 0.00 0.00 55 1015.6
20260506221609 28 104 12.9 25.7 0.00 0.00 0.00 54 1015.6
20260506220601 28 143 9.7 24.1 0.00 0.00 0.00 55 1015.6
20260506215100 28 183 9.7 24.1 0.00 0.00 0.00 54 1015.6
20260506214559 28 150 11.3 25.7 0.00 0.00 0.00 53 1015.6
20260506214058 28 99 11.3 25.7 0.00 0.00 0.00 53 1015.6
20260506213556 28 148 11.3 24.1 0.00 0.00 0.00 53 1015.6
20260506213054 28 114 12.9 27.4 0.00 0.00 0.00 52 1015.6
20260506212554 28 146 11.3 27.4 0.00 0.00 0.00 53 1015.6
20260506211551 29 86 9.7 20.9 0.00 0.00 0.00 51 1015.6
20260506211051 29 120 12.9 25.7 0.00 0.00 0.00 52 1015.4
20260506210551 29 113 12.9 25.7 0.00 0.00 0.00 51 1015.5
20260506210050 29 124 12.9 25.7 0.00 0.00 0.00 50 1015.5
20260506205548 30 131 9.7 25.7 0.00 0.00 0.00 50 1015.5
20260506204546 29 131 12.9 27.4 0.00 0.00 0.00 51 1015.6
20260506203545 30 147 9.7 22.5 0.00 0.00 0.00 49 1015.7
20260506203046 30 143 9.7 24.1 0.00 0.00 0.00 50 1015.7
20260506202545 30 100 9.7 24.1 0.00 0.00 0.00 48 1015.6
20260506202046 30 139 11.3 25.7 0.00 0.00 0.00 48 1015.6
20260506201543 30 133 12.9 25.7 0.00 0.00 0.00 48 1015.6
20260506201045 30 107 11.3 25.7 0.00 0.00 0.00 49 1015.7
20260506200543 30 228 9.7 20.9 0.00 0.00 0.00 48 1015.7